Back to Previous

Regional Weather Roundup

730 
ASUS44 KLZK 252305
RWRLZK

WEATHER ROUNDUP FOR ARKANSAS
NATIONAL WEATHER SERVICE LITTLE ROCK AR
600 PM CDT SAT APR 25 2015

NOTE: "FAIR" INDICATES FEW OR NO CLOUDS BELOW 12,000 FEET WITH NO
SIGNIFICANT WEATHER AND/OR OBSTRUCTIONS TO VISIBILITY.

ARZ001-003-010-029-260000-
NORTHWEST ARKANSAS
  
CITY           SKY/WX    TMP DP  RH WIND       PRES   REMARKS
FAYETTEVILLE   SUNNY     77  51  40 W13       29.59S                  
FORT SMITH     SUNNY     82  50  32 W15       29.58R                  
HARRISON       MOSUNNY   77  49  37 W14G24    29.58R                  
BENTONVILLE    SUNNY     79  48  34 W14G23    29.60S                  
ROGERS         SUNNY     77  50  38 W15G23    29.60R                  
SILOAM SPGS    SUNNY     79  52  38 W15G22    29.60S                  
HIGHFILL       SUNNY     78  49  35 W15G21    29.59R                  
SPRINGDALE     MOSUNNY   79  50  36 W16G32    29.61R                  
$$

ARZ004-005-016-260000-
NORTH CENTRAL ARKANSAS
  
CITY           SKY/WX    TMP DP  RH WIND       PRES   REMARKS
BATESVILLE     SUNNY     82  52  34 SW16G23   29.52S                  
FLIPPIN          N/A     81  46  30 W16G30    29.53R                  
MTN HOME       SUNNY     79  48  33 W8G20     29.53R                  
$$

ARZ040-041-260000-
WEST CENTRAL ARKANSAS
  
CITY           SKY/WX    TMP DP  RH WIND       PRES   REMARKS
MENA           SUNNY     82  50  32 W10G16    29.62S                  
MOUNT IDA      SUNNY     85  47  26 VRB5      29.58R                  
$$

ARZ009-017-025-026-028-260000-
NORTHEAST ARKANSAS
  
CITY           SKY/WX    TMP DP  RH WIND       PRES   REMARKS
CORNING          N/A     82  50  32 W17G25    29.50R                  
JONESBORO      SUNNY     78  63  59 SW17G28   29.50R                  
NEWPORT        SUNNY     83  55  37 SW16      29.52R                  
WALNUT RIDGE   SUNNY     81  57  44 SW14      29.49S                  
BLYTHEVILLE    SUNNY     79  63  57 SW14G23   29.51S                  
$$

ARZ022-023-033-042-044-260000-
CENTRAL ARKANSAS
  
CITY           SKY/WX    TMP DP  RH WIND       PRES   REMARKS
LITTLE ROCK    MOSUNNY   85  50  29 SW10G18   29.56S                  
N LITTLE ROCK  MOSUNNY   83  56  39 W7G16     29.56S                  
JACKSONVILLE   SUNNY     85  56  37 W10       29.55S                  
SEARCY         SUNNY     83  55  38 SW9G20    29.55F                  
HOT SPRINGS    SUNNY     83  51  33 SW10G20   29.58S                  
RUSSELLVILLE   SUNNY     83  52  34 SW9       29.55S                  
CLINTON        FAIR      81  54  39 SW13G18   29.55S                  
$$

ARZ036-260000-
EAST ARKANSAS
  
CITY           SKY/WX    TMP DP  RH WIND       PRES   REMARKS
WEST MEMPHIS   SUNNY     79  62  56 SW7G17    29.54F                  
$$

ARZ050-053-066-070-073-260000-
SOUTHWEST ARKANSAS
  
CITY           SKY/WX    TMP DP  RH WIND       PRES   REMARKS
ARKADELPHIA    FAIR      84  58  41 SW9       29.60S                  
CAMDEN         SUNNY     86  46  25 E12G18    29.60S                  
TEXARKANA      SUNNY     85  52  32 SW14      29.61F                  
EL DORADO      SUNNY     85  54  34 SW10      29.62S                  
DE QUEEN       SUNNY     82  51  34 W13       29.60R                  
$$

ARZ056-057-069-260000-
SOUTHEAST ARKANSAS
  
CITY           SKY/WX    TMP DP  RH WIND       PRES   REMARKS
PINE BLUFF     SUNNY     84  56  38 SW13G20   29.58S                  
STUTTGART      SUNNY     82  61  47 SW12      29.57F                  
MONTICELLO     SUNNY     85  57  38 W10       29.59S                  

$$




USA.gov is the U.S. government's official web portal to all federal, state and local government web resources and services.